Home   Weather   City of Melbourne   Past weeks
Flag for USA

Past Weather in City of Melbourne, Arkansas, USA — Yesterday and Last 2 Weeks

Now
69 °F

Sunny.


Feels Like: 69 °F
Forecast: 72 / 40 °F
Wind: 7 mph from East

Location: Batesville Regional Airport

Current Time: Oct 14, 2019 at 1:23:36 pm

Latest Report: Oct 14, 2019 at 12:56 pm


Visibility: 10 mi

Pressure: 30.09 "Hg

Humidity: 51%

Dew Point: 50 °F

Location of City of MelbourneLocation

Past Weather in City of Melbourne — Graph

°F

City of Melbourne Temperature Yesterday

Maximum temperature yesterday: 71 °F (at 3:56 pm)
Minimum temperature yesterday: 37 °F (at 2:56 am)
Average temperature yesterday: 53 °F

High & Low Weather Summary for the Past Weeks

 TemperatureHumidityPressure
High93 °F (Oct 2, 1:56 pm)100% (Oct 6, 11:32 pm)30.29 "Hg (Oct 6, 11:32 pm)
Low34 °F (Oct 12, 6:56 am)28% (Oct 13, 2:56 pm)29.85 "Hg (Oct 11, 12:56 am)
Average66 °F72%30.07 "Hg
* Reported Sep 29 10:56 am — Oct 14 10:56 am, City of Melbourne. Weather by CustomWeather, © 2019

Note: Actual official high and low records may vary slightly from our data, if they occured in-between our weather recording intervals... More about our weather records

Advertising

City of Melbourne Weather History for the Previous 24 Hours

Scroll right to see more
 ConditionsComfort  
Time TempWeatherWind HumidityBarometerVisibility
10:56 am
Mon, Oct 14
63 °FSunny.3 mph65%30.12 "Hg10 mi
9:56 am56 °FSunny.No wind77%30.13 "Hg10 mi
8:56 am49 °FSunny.No wind90%30.12 "Hg10 mi
7:56 am45 °FSunny.No wind97%30.11 "Hg10 mi
6:56 am42 °FClear.No wind96%30.10 "Hg10 mi
5:56 am45 °FClear.No wind93%30.09 "Hg10 mi
4:56 am45 °FClear.No wind93%30.07 "Hg10 mi
3:56 am45 °FClear.No wind93%30.06 "Hg10 mi
2:56 am47 °FClear.No wind86%30.06 "Hg10 mi
1:56 am46 °FClear.No wind89%30.06 "Hg10 mi
12:56 am47 °FClear.No wind83%30.06 "Hg10 mi
11:56 pm
Sun, Oct 13
49 °FClear.6 mph77%30.07 "Hg10 mi
10:56 pm50 °FClear.No wind74%30.06 "Hg10 mi
9:56 pm50 °FClear.No wind77%30.04 "Hg10 mi
8:56 pm53 °FClear.No wind66%30.03 "Hg10 mi
7:56 pm56 °FClear.3 mph62%30.02 "Hg10 mi
6:56 pm61 °FClear.5 mph50%30.01 "Hg10 mi
6:19 pm64 °FPassing clouds.3 mph46%30.00 "Hg10 mi
5:56 pm67 °FSunny.3 mph39%30.00 "Hg10 mi
4:56 pm70 °FSunny.6 mph34%30.00 "Hg10 mi
3:56 pm71 °FSunny.8 mph30%30.00 "Hg10 mi
2:56 pm70 °FSunny.9 mph28%30.01 "Hg10 mi
1:56 pm68 °FSunny.9 mph30%30.03 "Hg10 mi
Weather by CustomWeather, © 2019

See weather overview